Regional Weather Roundup
Issued by NWS

Home | Current Version | Previous Version | Text Only | Print | Product List | Glossary On
Versions: 1 2 3 4 5 6 7 8 9 10 11 12 13 14 15 16 17 18 19 20 21 22 23 24 25 26 27 28 29 30 31 32 33 34 35 36 37 38 39 40 41 42 43 44 45 46 47 48 49 50
000
ASUS44 KMEG 282010
RWRTN
TENNESSEE HOURLY STATE WEATHER ROUNDUP
NATIONAL WEATHER SERVICE MEMPHIS TN
300 PM CDT THU JUL 28 2016

TNZ002-004-019-021-049-052-054-088>092-282100-
WEST TENNESSEE

CITY           SKY/WX    TMP DP  RH WIND       PRES   REMARKS
MEMPHIS INTL   PTSUNNY   88  77  69 S9        29.94F HX 100
NWS MEMPHIS      N/A     86 N/A N/A MISG        N/A
JACKSON        MOSUNNY   88  75  65 SW12      29.92F HX  97
DYERSBURG      MOSUNNY  N/A N/A N/A MISG        N/A
UNION CITY     MOSUNNY   88  79  74 SW6       29.90F HX 102
PARIS          PTSUNNY   84  73  70 W7        29.92F HX  91
LEXINGTON      MOSUNNY   84  75  74 SW6       29.91F HX  92
$$

TNZ008-025-027-028-033-062-065-066-282100-
NORTH MIDDLE TENNESSEE

CITY           SKY/WX    TMP DP  RH WIND       PRES   REMARKS
NASHVILLE      PTSUNNY   83  71  67 NW8       29.92S
CLARKSVILLE    CLOUDY    84  71  65 CALM      29.90F
SMYRNA         CLOUDY    81  75  81 N10       29.92S
COOKEVILLE     PTSUNNY   79  75  89 VRB7      29.91F
CROSSVILLE     CLOUDY    74  72  93 SW5       29.97S
$$

TNZ061-075-076-078-094-096-097-282100-
SOUTH MIDDLE TENNESSEE

CITY           SKY/WX    TMP DP  RH WIND       PRES   REMARKS
FAYETTEVILLE   MOSUNNY   81  75  83 W8        29.95F
TULLAHOMA      PTSUNNY   82  72  69 W10       29.95S
WINCHESTER     CLOUDY    73  72  94 W10       29.97R
MCMINNVILLE    PTSUNNY   77  77 100 SW8       29.94R
COLUMBIA       CLOUDY    82  82 100 W7        29.92S HX  97
SHELBYVILLE    CLOUDY    81  75  83 W10       29.94S
$$

TNZ017-018-042-046-047-282100-
NORTHEAST TENNESSEE

CITY           SKY/WX    TMP DP  RH WIND       PRES   REMARKS
TRI CITIES     MOSUNNY   89  68  49 SW15      29.92F HX  93
ELIZABETHTON   PTSUNNY   88  70  55 NW8G16    29.91F HX  92
$$

TNZ012-013-036-069-073-074-282100-
CENTRAL EAST TENNESSEE

CITY           SKY/WX    TMP DP  RH WIND       PRES   REMARKS
KNOXVILLE      PTSUNNY   85  69  58 SW17      29.91F
OAK RIDGE      CLOUDY    82  71  69 VRB6      29.93F
MORRISTOWN     CLOUDY    86  66  51 SW14G21   29.92S
$$

TNZ083-085-099-282100-
SOUTHEAST TENNESSEE

CITY           SKY/WX    TMP DP  RH WIND       PRES   REMARKS
CHATTANOOGA    PTSUNNY   80  73  79 SW5       29.93S
$$

SKY/WX REPORTED AS FAIR MEANS FEW OR NO CLOUDS BELOW
12 THOUSAND FEET.





USA.gov is the U.S. government's official web portal to all federal, state and local government web resources and services.